STARLINK-37633, 69133

Orbit data source: Space-Track

STARLINK-37633, 69133 is a payload satellite owned by SpaceX/Seattle (US) in SSO that was launched on Wed, 20 May 2026 UTC via an FALCON 9 launch vehicle from the Air Force Western Test Range (AFWTR). Payload-class satellites include a variety of spacecraft equipped with specific instruments for various scientific and technological missions. These include communications satellites like Starlink; space stations such as the ISS; scientific satellites like the Hubble; Earth observation satellites from companies like Planet Labs, Umbra, and HawkEye 360; GPS; miniature CubeSats for education and research; and military/defense satellites.

Loading next visibility...
Identifier
69133, 2026-110K
Orbit
SSO
Country
Flag of USUS
Related business
Manufacturer
SpaceX/Seattle
Mission
Operational spacecraft
Bus & Motor
STARLINK V2MO, Unknown motor
Mass
575 kg wet, ~530 kg dry
Launch date (UTC)
2026-05-20 (1 month ago)
Launch vehicle
FALCON 9
Launch site
Air Force Western Test Range (AFWTR)
Object type
Payload
Rocket body
Debris
Shape & HBR
Unknown shape, 14.5 m
Radar Cross Section
Large (>1 m²)

Expand to show TLE details & history
Last TLE update: 10 hours ago

TLE from 10 hours ago
0 STARLINK-37633
1 69133U 26110K   26171.41668980  .00060347  00000-0  18576-2 0  9990
2 69133  97.2860   7.7805 0001936 117.9492 253.8599 15.33428386  6061
Epoch: 2026-06-20T10:00Z
TLE epoch observation values (Epoch: 2026-06-20T10:00:01.998Z)
Latitude
11.64369°
Longitude
-52.3608°
Altitude
468.307 km
Speed
7.633 km/s
True Right ascension
00h 25m 06s
True Declination
11° 34' 23"
Sunlit
Object was in daylight at epoch
Visualization orbit readout
Latitude
Unknown
Longitude
Unknown
Altitude
Unknown
Speed
Unknown
Apparent Right ascension
Unknown
Apparent Declination
Unknown
Sunlit
N/A
Visualization observer readout
Local Sidereal Time
07:13:42
Azimuth
Unknown
Elevation
Unknown
Doppler factor
Unknown
Orbital elements
Apogee altitude
463.86 km
Perigee altitude
461.211 km
Semi-major axis
6,840.672 km
Eccentricity
0.00019
Inclination
97.286°
RAAN
7.7805°
Arg. of periapsis
117.9492°
True anomaly
253.83859°
Mean anomaly
253.8599°
Eccentric anomaly
253.84925°
Mean motion
3.83614 °/min
Orbital period
93.84 mins
BSTAR
0.0018576
Loading maneuver chart data...
Computing Atmospheric mass density...
Loading historical data...
Loading historical data...
Loading historical data...
Loading historical data...
Loading historical data...
Loading historical data...
Loading historical data...

Documentation

Showing up to 5 results
|